Regional Weather Roundup
Issued by NWS Green Bay, WI

Home | Current Version | Previous Version | Text Only | Print | Product List | Glossary On
Versions: 1 2 3 4 5 6 7 8 9 10 11 12 13 14 15 16 17 18 19 20 21 22 23 24 25 26 27 28 29 30 31 32 33 34 35 36 37 38 39 40 41 42 43 44 45 46 47 48 49 50
000
ASUS43 KGRB 290511
RWRGRB

NORTH-CENTRAL AND NORTHEAST WISCONSIN REGIONAL WEATHER ROUNDUP
NATIONAL WEATHER SERVICE GREEN BAY WI
1200 AM CDT SAT APR 29 2017

WIZ005-009-010>012-018-019-290600-
NORTH CENTRAL WISCONSIN

CITY           SKY/WX    TMP DP  RH WIND       PRES   REMARKS
IRONWOOD       CLEAR     27  25  92 SW3       30.14S
MANITOWISH WTR CLEAR     28  28  99 CALM      30.12S
ARBOR VITAE    CLEAR     32  28  84 CALM      30.11R
EAGLE RIVER    CLEAR     30  24  79 N3        30.10S
LAND O LAKES   PTCLDY    30  27  89 CALM      30.12S
RHINELANDER    CLEAR     33  27  78 N3        30.11R
PHILLIPS       CLEAR     32  26  79 NE6       30.12R
ANTIGO         CLEAR     31  29  92 N8        30.08R
TOMAHAWK       CLEAR     32  27  82 N5        30.11R
MERRILL        CLEAR     32  29  90 N8        30.09R
$$

WIZ013-073-290600-
NORTHEAST WISCONSIN

CITY           SKY/WX    TMP DP  RH WIND       PRES   REMARKS
IRON MOUNTAIN  CLEAR     33  23  66 NW8       30.09R
MARINETTE      CLOUDY    41  30  65 CALM      30.10R
OCONTO         CLOUDY    42  29  60 N5        30.10R
$$

WIZ017-030-035>037-045-290600-
CENTRAL WISCONSIN

CITY           SKY/WX    TMP DP  RH WIND       PRES   REMARKS
MEDFORD        CLEAR     33  29  87 N3        30.08R
WAUSAU         CLOUDY    36  29  75 CALM      30.07S
MOSINEE        CLOUDY    36  30  80 NE5       30.09R
MARSHFIELD     CLOUDY    39  29  67 NE3       30.07R
WISC RAPIDS    CLOUDY    43  31  62 E7        30.10R
STEVENS POINT  MOCLDY    37  29  74 CALM      30.09S
WAUPACA        CLOUDY    46  32  56 N8        30.09R
SHAWANO        CLOUDY    43  32  65 N6        30.09S
CLINTONVILLE   CLOUDY    43  30  61 N6        30.09R
WAUTOMA        CLOUDY    45  34  65 MISG      30.09R
$$

WIZ038-039-048-051-290600-
FOX VALLEY

CITY           SKY/WX    TMP DP  RH WIND       PRES   REMARKS
NWS GREEN BAY  CLOUDY    45  33  63 N15       30.08R
APPLETON       CLOUDY    43  30  61 N12       30.06R
OSHKOSH        CLOUDY    46  36  68 N10       30.06R
FOND DU LAC    CLOUDY    47  36  65 N7        30.06R
$$

WIZ022-050-052-290600-
EAST CENTRAL WISCONSIN

CITY           SKY/WX    TMP DP  RH WIND       PRES   REMARKS
EPHRAIM        CLOUDY    40  32  74 N5        30.08S
WASHINGTON ISL CLOUDY    38  33  81 CALM      30.08S
STURGEON BAY   CLOUDY    42  32  67 N10       30.09R
MANITOWOC      CLOUDY    43  39  86 N7        30.08R
SHEBOYGAN      CLOUDY    43  41  93 N3        30.05R FOG
$$

LMZ563-521-522-541>543-290600-
LAKESHORE

STATION/POSITION TIME  TEMP    WIND        PRES    VSBY  WAVE
                       AIR SEA DIR/SP/G                  HT/PER
                 (UTC) (F)     (DEG/KT/KT) (MB)    (MI)  (FT/S)
SHEBOYGAN LKSHOR 0500   41     350/  7/  9 1018.1R
KEWAUNEE LKSHORE 0448   43     350/  4/  7 1018.2R
NORTHPORT PIER   0430   40     340/  6/  7 1018.6S
N MID LAKE BUOY  0450   38 37   50/  2/  4 1020.1R         1/ 5
CHAMBERS ISLAND  0440   41     310/  4/  5 1018.6R
MENOMINEE LKSHOR 0448   43     340/  7/  9 1018.1R
$$




USA.gov is the U.S. government's official web portal to all federal, state and local government web resources and services.